C/2013 V4 ( Catalina )

Japanese version
Home page
Updated on May 22, 2017

---------------------------------------------------------------------

* Profile

Discovery Date November 9, 2013
Magnitude 17.7 mag
Discoverer R. E. Hill (Catalina Sky Survey)

* Pictures

* Orbital Elements

Epoch 2015 Oct. 25.0 TT = JDT 2457320.5
T 2015 Oct. 7.60199 TT                                  MPCW
q   5.1854063            (2000.0)            P               Q
z  -0.0004964      Peri.   40.44941     +0.22785905     -0.60308060
 +/-0.0000002      Node    55.62129     +0.46389090     -0.62303145
e   1.0025742      Incl.   67.85537     +0.85608731     +0.49812208
From 2165 observations 2013 Oct. 23-2017 May 6, mean residual 0".5.

* Finding Charts

* Magnitudes Graph

        m1 = 5.0 + 5 log d + 10.0 log r

---------------------------------------------------------------------

The orbital elements are published on M.P.E.C. 2017-J52.
The charts are made with StellaNavigator Ver.8 (AstroArts).
The magnitudes graphs are made with Comet for Windows.

---------------------------------------------------------------------

Copyright(C) Seiichi Yoshida (comet@aerith.net). All rights reserved.